Wind_Speed
7 6 6 5 5 4 5 7 7 4 1 3 5 7 7 7 7 7 7 8 9 10 12 13 15 17 18 20 22 24 26 28 30 33 36 38 41 43 45 46 47 47 46 45 44 42 41 40 39
11 10 9 8 8 7 7 6 7 5 3 1 3 5 6 7 7 8 8 9 10 11 13 15 16 18 20 21 23 25 26 28 30 31 33 35 37 40 42 45 47 49 50 50 50 48 46 45 44
12 13 11 10 10 9 9 9 9 7 5 3 3 4 5 6 8 8 9 10 11 13 15 16 18 20 22 24 26 27 29 31 32 33 35 36 38 39 40 42 44 47 49 51 52 53 52 51 49
13 13 11 10 11 10 10 9 8 7 5 4 4 5 6 6 7 8 9 11 13 16 18 20 23 25 27 29 31 33 35 36 37 38 40 40 41 42 43 44 45 46 47 49 51 53 55 55 54
14 12 11 11 10 10 10 10 9 8 7 6 6 6 6 6 8 10 13 15 18 20 23 26 28 31 33 35 37 39 41 43 44 45 46 47 47 48 48 48 49 49 49 50 51 52 54 56 57
13 12 13 12 12 12 12 11 10 9 8 7 6 6 7 9 12 15 18 21 23 26 29 32 34 37 40 42 45 47 49 50 52 53 54 55 55 56 55 55 55 55 54 54 53 53 54 55 57
14 14 15 14 14 14 13 12 10 8 7 7 8 9 12 14 17 20 23 26 28 31 34 37 40 44 47 49 52 54 56 58 60 61 62 63 64 64 64 63 62 61 60 60 59 57 57 57 58
16 16 15 15 14 13 12 10 8 7 6 9 11 13 16 19 22 25 28 31 34 37 40 43 46 50 53 56 59 61 64 66 68 69 70 71 72 72 72 71 71 69 68 66 64 63 62 61 60
16 16 14 13 11 10 9 8 8 8 9 12 15 18 21 24 27 30 33 36 40 43 46 49 52 55 58 61 64 67 69 72 74 76 77 78 79 79 79 79 78 76 75 73 71 69 67 66 64
13 12 11 10 9 8 8 8 9 11 13 16 19 22 25 28 31 34 37 40 43 47 50 53 56 59 62 65 68 70 73 76 78 80 81 83 84 85 85 84 84 83 81 78 76 74 72 71 69
9 8 7 7 7 7 8 10 12 14 16 19 23 26 29 32 35 38 41 44 47 50 54 57 60 63 66 69 71 74 77 79 82 84 85 86 88 89 89 89 89 87 85 83 81 79 77 75 74
5 5 5 6 7 9 11 13 15 17 20 23 25 28 31 35 38 41 44 47 51 54 57 60 63 66 70 73 76 79 81 84 86 88 90 92 93 94 94 94 93 92 90 88 85 83 81 79 78
3 5 6 8 10 12 15 17 20 21 23 26 28 30 33 37 40 44 47 50 54 57 60 63 67 71 74 77 80 82 85 88 91 93 94 95 96 96 95 94 93 92 91 91 89 88 86 84 82
8 9 10 12 13 16 19 22 24 25 26 28 30 32 34 38 42 45 49 52 56 59 63 67 71 74 77 80 84 87 90 92 94 94 92 90 89 87 86 85 84 83 83 83 84 85 85 86 86
12 13 15 16 17 18 20 23 26 27 28 29 30 32 36 40 43 47 51 55 59 63 67 71 74 77 81 85 88 91 93 93 91 88 84 81 78 75 74 73 72 72 71 72 74 77 79 81 84
14 16 17 19 20 20 21 22 25 27 28 29 32 35 39 42 46 50 54 58 62 67 71 75 78 81 85 89 91 93 92 88 84 79 75 72 70 68 66 65 65 64 64 65 66 68 71 75 78
16 17 18 20 20 20 21 22 24 27 29 32 35 38 42 45 49 53 57 62 66 71 74 78 81 85 88 90 91 90 85 81 77 74 72 70 67 65 64 62 61 60 60 61 62 64 66 69 73
15 14 16 18 18 19 20 22 25 28 32 35 37 40 44 48 52 57 62 66 71 75 78 81 85 87 89 89 87 82 77 75 73 72 71 68 65 63 61 59 57 57 58 59 60 62 64 66 69
16 16 16 18 19 20 21 23 26 31 34 36 39 42 46 51 56 61 66 71 75 78 80 84 86 88 88 86 81 76 73 72 71 70 68 65 62 59 57 55 53 53 54 56 58 60 62 64 66
18 18 18 19 20 22 23 24 28 32 34 37 40 45 50 55 60 65 69 74 77 79 82 85 87 87 86 82 77 75 73 72 70 67 63 60 57 53 51 50 49 49 50 51 54 58 60 63 65
18 18 18 19 21 23 25 25 29 32 35 39 43 48 53 58 63 68 72 75 78 80 83 85 86 85 82 78 75 74 72 69 65 60 56 53 50 48 46 45 44 44 45 47 49 53 57 60 63
18 18 19 21 22 26 29 29 30 34 38 42 47 51 56 61 66 70 73 76 78 80 83 85 85 82 78 76 75 74 71 66 61 56 52 49 48 46 45 43 42 42 42 42 44 48 52 57 61
19 20 21 22 24 26 29 31 33 37 41 45 49 53 58 63 67 71 73 75 78 81 83 83 81 78 76 76 75 73 69 63 57 52 49 47 47 47 45 44 42 41 41 41 41 43 47 52 57
21 22 23 24 25 28 31 34 36 40 43 47 51 56 60 65 68 71 73 75 78 81 82 81 78 76 75 75 73 71 65 59 54 50 48 48 47 48 47 46 45 44 42 41 41 41 43 47 53
22 24 26 28 29 31 33 35 38 41 45 49 53 57 61 65 68 71 73 75 78 80 80 78 76 74 74 73 71 67 62 57 53 51 51 51 51 51 51 50 48 47 45 43 41 40 41 43 48
24 26 29 32 33 33 34 36 39 43 47 50 55 58 62 65 69 71 73 76 78 79 78 76 73 73 73 71 68 64 61 57 55 55 56 56 56 55 54 53 52 50 47 44 42 40 40 41 44
26 28 30 32 35 35 36 39 42 45 48 52 55 59 62 66 69 71 73 76 78 78 76 74 72 72 71 70 66 63 60 58 57 58 60 61 61 59 58 56 53 51 48 45 43 41 39 39 41
28 30 32 33 37 39 40 40 43 46 49 52 56 60 64 67 69 71 73 76 77 76 74 72 71 71 70 68 65 63 60 59 60 62 64 64 64 64 61 57 53 49 46 43 41 40 38 37 37
28 30 31 32 34 38 42 41 43 46 49 53 57 61 64 67 69 71 73 76 76 74 72 69 69 69 68 66 64 62 61 62 64 66 68 68 69 67 61 55 49 45 43 41 38 37 35 34 34
28 29 31 33 35 37 41 42 44 47 50 54 58 61 65 67 69 71 73 74 74 71 69 68 68 68 67 65 64 63 63 65 67 68 70 72 71 65 56 47 39 33 32 34 35 34 32 30 30
Wind_Direction
61 70 86 99 116 129 154 158 151 160 225 323 334 342 351 352 346 338 329 329 324 317 311 306 303 300 297 295 293 291 288 285 282 279 276 274 272 269 267 265 263 260 257 254 252 252 252 252 251
79 86 92 101 115 120 126 129 131 134 130 35 2 355 356 354 357 351 340 332 324 319 316 313 311 309 307 305 303 301 299 296 293 289 286 282 279 276 273 270 267 263 260 258 255 252 251 251 250
86 86 90 105 106 107 110 105 101 104 99 77 38 14 2 356 351 343 336 332 328 326 323 321 319 317 315 313 310 308 305 302 300 297 294 290 287 283 279 276 272 268 264 261 257 254 252 250 249
84 86 90 98 96 97 96 93 91 92 86 66 41 23 12 3 351 343 339 335 332 329 324 321 319 316 314 312 309 307 304 302 299 297 295 292 290 287 284 281 277 273 269 265 261 257 254 251 249
81 87 89 87 88 87 88 88 86 82 74 62 47 33 18 3 349 342 336 332 328 324 320 317 314 312 309 307 304 302 300 298 296 295 293 291 289 286 284 282 279 276 273 269 265 261 257 253 250
85 86 86 85 86 86 85 84 83 78 70 60 44 23 2 350 339 334 330 326 322 319 316 313 310 308 306 304 302 300 299 297 295 294 292 290 288 286 284 281 278 276 274 271 268 265 261 257 253
91 86 86 85 85 85 85 83 80 70 56 36 13 355 345 338 332 328 324 320 317 314 312 310 308 307 305 304 302 301 299 297 296 294 292 290 288 286 284 281 278 275 273 270 268 266 263 260 256
91 87 86 83 81 80 76 72 64 49 24 4 351 341 334 330 326 323 319 317 314 312 311 309 308 307 306 305 304 302 300 299 297 295 293 291 289 286 284 281 278 276 273 270 267 264 262 260 258
85 86 84 79 74 69 58 47 30 13 356 346 338 333 328 325 322 319 317 315 313 312 311 310 309 308 307 305 303 302 300 298 296 294 292 290 289 286 284 281 278 275 272 269 266 263 260 258 256
85 84 78 69 59 47 30 13 357 347 339 333 330 326 324 321 319 317 315 314 313 312 311 310 309 307 306 304 303 301 299 297 295 293 291 289 287 285 283 281 278 275 272 269 265 262 259 256 254
82 75 59 45 28 11 355 342 335 331 327 325 324 322 320 318 317 315 314 313 313 312 311 310 308 307 306 304 303 301 299 297 295 293 291 288 286 284 282 279 277 274 271 268 265 261 258 254 252
67 46 20 360 347 336 327 322 320 320 319 320 320 319 318 317 316 315 314 314 313 312 311 310 310 309 307 306 304 302 300 298 296 294 291 289 286 283 280 278 275 273 270 266 263 260 257 253 250
355 340 332 327 321 316 314 312 313 315 316 317 317 317 316 315 314 314 314 313 313 312 312 312 312 310 309 308 306 305 303 301 298 296 293 290 287 285 282 280 277 274 270 266 263 259 255 252 249
320 317 314 313 312 311 310 310 311 314 315 315 316 316 315 314 313 313 314 314 314 315 315 315 313 312 311 310 309 308 306 303 301 299 296 294 291 288 284 281 278 274 270 267 263 259 255 251 247
312 311 309 307 307 306 307 306 309 311 312 313 314 314 313 313 314 315 316 317 317 317 317 316 315 315 314 313 312 310 308 306 304 302 300 298 294 290 286 282 277 273 269 264 260 256 253 249 246
309 308 306 307 307 307 307 305 307 308 310 312 314 315 315 316 317 318 319 319 320 320 320 319 319 318 318 316 314 312 311 309 308 306 303 301 297 293 288 284 279 273 268 262 258 254 250 246 243
311 310 307 305 304 305 307 308 309 310 313 316 318 317 317 319 320 321 322 323 323 323 323 323 322 321 320 318 316 315 314 313 311 309 306 303 300 296 291 286 280 274 268 263 257 252 248 245 241
312 305 301 303 308 313 314 314 314 315 317 319 320 320 320 321 323 325 326 326 326 326 326 325 324 322 321 319 318 317 316 314 312 310 308 305 301 298 293 288 282 276 269 263 257 252 247 244 240
317 318 319 320 321 320 319 321 319 318 319 321 322 323 324 326 328 329 329 329 329 328 327 326 324 323 321 320 319 318 316 315 313 311 309 307 303 300 295 291 285 279 272 265 258 252 247 243 240
325 327 328 325 322 320 322 324 319 318 320 323 325 328 330 331 332 331 331 331 330 329 328 326 325 323 322 322 321 320 319 318 317 315 313 310 307 304 300 295 289 283 276 269 262 254 248 243 240
328 328 327 324 323 322 324 325 321 321 324 328 331 333 334 334 333 332 332 332 331 329 328 327 325 325 324 324 323 323 322 321 319 317 315 312 310 307 304 299 293 287 280 273 266 259 251 244 240
327 327 326 325 327 327 326 327 326 328 330 333 335 335 335 334 334 334 333 332 331 330 329 327 326 326 326 326 325 325 324 324 322 321 319 317 315 312 309 304 299 293 286 279 271 263 255 246 240
327 328 329 329 328 326 326 330 332 333 335 336 336 336 336 336 335 334 333 332 332 331 329 328 328 328 328 328 328 328 328 327 326 325 324 322 318 315 311 307 301 296 290 284 277 268 259 250 242
329 330 330 328 328 329 333 334 334 336 336 336 336 337 337 336 335 334 334 334 332 331 330 330 330 330 330 330 330 330 330 329 328 327 326 323 319 315 311 306 302 296 291 286 280 273 263 253 246
331 330 330 331 334 337 336 336 336 336 337 337 337 337 337 336 335 336 335 334 333 333 332 332 332 332 332 332 332 332 332 331 330 329 326 323 318 313 308 303 299 294 289 285 280 274 267 257 248
333 333 333 333 334 336 336 338 337 337 339 338 337 337 337 337 337 337 336 336 335 334 333 333 334 334 334 334 335 334 334 333 331 329 327 323 318 313 308 302 297 292 286 281 277 273 267 259 250
335 334 335 333 332 335 339 340 338 339 339 338 337 338 338 339 339 338 337 337 336 335 335 335 336 336 336 337 337 337 336 335 333 331 328 324 320 315 309 303 297 291 285 278 273 270 265 259 251
338 336 335 335 334 336 339 341 339 339 338 336 337 339 340 340 339 339 339 338 337 337 336 337 338 338 339 339 339 339 339 338 336 333 331 328 323 318 312 304 296 289 282 275 270 266 262 257 251
340 337 336 336 335 335 336 341 338 338 337 336 339 341 341 341 340 340 340 339 338 338 338 339 340 340 341 342 342 342 342 341 340 338 335 332 328 323 317 309 300 288 277 269 264 261 257 253 248
346 341 338 337 336 336 336 338 338 337 337 338 341 342 342 342 342 341 341 340 340 340 340 341 342 343 344 345 345 346 345 345 343 342 340 337 334 331 327 321 313 299 279 264 257 254 251 248 244
Height
5875 5875 5876 5877 5877 5877 5876 5876 5876 5876 5876 5875 5875 5874 5875 5875 5876 5878 5874 5872 5871 5869 5868 5867 5865 5864 5862 5860 5859 5857 5855 5854 5852 5850 5849 5848 5846 5845 5845 5844 5844 5844 5844 5844 5844 5845 5845 5845 5846
5875 5876 5877 5877 5876 5876 5877 5876 5875 5876 5877 5876 5875 5875 5875 5874 5874 5874 5872 5871 5870 5868 5867 5865 5863 5861 5859 5857 5855 5853 5851 5849 5847 5845 5843 5841 5839 5838 5836 5835 5834 5834 5834 5835 5835 5836 5836 5837 5838
5877 5877 5879 5878 5877 5878 5878 5877 5876 5876 5877 5876 5876 5876 5875 5874 5874 5872 5871 5869 5868 5866 5864 5862 5860 5858 5856 5853 5851 5848 5846 5844 5841 5839 5836 5834 5832 5830 5829 5827 5825 5825 5824 5824 5824 5825 5826 5827 5828
5879 5880 5880 5879 5878 5879 5878 5877 5877 5877 5877 5877 5877 5876 5875 5874 5873 5871 5869 5868 5866 5864 5862 5859 5857 5854 5851 5848 5846 5843 5840 5837 5834 5832 5829 5826 5824 5822 5820 5818 5816 5815 5814 5813 5813 5814 5815 5816 5817
5881 5882 5881 5880 5880 5879 5879 5878 5878 5878 5877 5877 5877 5876 5875 5874 5872 5870 5868 5866 5864 5861 5858 5855 5852 5849 5846 5842 5839 5836 5832 5829 5826 5823 5820 5817 5814 5812 5810 5807 5805 5804 5803 5802 5802 5802 5803 5804 5805
5883 5883 5882 5882 5881 5881 5880 5880 5879 5879 5878 5877 5877 5876 5874 5872 5870 5868 5865 5863 5860 5857 5854 5850 5846 5842 5838 5835 5830 5826 5823 5819 5815 5812 5808 5805 5802 5799 5797 5795 5793 5791 5790 5789 5790 5790 5790 5791 5792
5885 5884 5883 5883 5883 5882 5882 5881 5880 5879 5878 5877 5877 5875 5873 5871 5868 5865 5862 5859 5856 5852 5848 5844 5839 5835 5830 5825 5820 5815 5811 5806 5802 5798 5794 5791 5788 5784 5781 5779 5777 5776 5775 5775 5775 5776 5776 5777 5779
5886 5886 5885 5885 5884 5883 5883 5882 5881 5879 5879 5877 5876 5874 5871 5869 5866 5862 5858 5854 5850 5846 5841 5836 5831 5826 5820 5814 5808 5802 5797 5791 5786 5782 5778 5774 5770 5766 5763 5761 5759 5758 5758 5758 5759 5760 5760 5762 5764
5888 5888 5886 5886 5885 5884 5883 5882 5881 5879 5878 5876 5874 5871 5869 5865 5861 5857 5853 5848 5844 5838 5833 5828 5822 5816 5810 5803 5796 5790 5783 5776 5770 5765 5760 5755 5750 5746 5742 5739 5737 5736 5737 5738 5739 5741 5742 5745 5747
5890 5888 5888 5887 5886 5884 5882 5881 5880 5877 5876 5874 5871 5868 5865 5861 5856 5852 5847 5842 5836 5831 5825 5819 5813 5806 5799 5791 5784 5776 5769 5761 5753 5746 5740 5735 5729 5724 5719 5716 5713 5712 5713 5714 5716 5718 5721 5725 5728
5890 5889 5888 5886 5885 5883 5881 5880 5878 5876 5874 5871 5868 5864 5860 5855 5850 5845 5840 5835 5829 5823 5817 5809 5802 5794 5786 5778 5769 5760 5752 5743 5734 5725 5719 5712 5706 5700 5695 5690 5687 5686 5686 5688 5690 5693 5697 5702 5707
5890 5889 5888 5886 5884 5882 5880 5878 5876 5873 5871 5868 5864 5860 5855 5849 5844 5838 5833 5827 5821 5814 5807 5799 5790 5781 5771 5761 5752 5742 5732 5722 5712 5702 5694 5686 5678 5672 5667 5662 5659 5658 5658 5659 5662 5665 5671 5677 5682
5890 5888 5887 5885 5883 5880 5878 5875 5873 5870 5867 5864 5860 5855 5850 5844 5838 5832 5826 5820 5813 5804 5796 5787 5777 5766 5755 5744 5732 5721 5709 5697 5686 5675 5665 5656 5648 5641 5635 5630 5628 5627 5627 5629 5632 5636 5642 5649 5655
5890 5887 5885 5883 5881 5878 5875 5872 5869 5866 5863 5859 5855 5850 5844 5838 5832 5826 5819 5812 5803 5794 5784 5774 5762 5750 5737 5725 5712 5698 5685 5671 5658 5645 5634 5624 5617 5610 5604 5600 5597 5596 5596 5597 5600 5605 5612 5619 5627
5888 5886 5883 5881 5878 5876 5873 5869 5865 5862 5859 5855 5851 5846 5840 5833 5826 5818 5810 5802 5792 5782 5771 5759 5747 5733 5718 5704 5689 5673 5658 5644 5631 5618 5607 5597 5589 5582 5577 5573 5570 5568 5567 5568 5570 5574 5581 5589 5598
5886 5883 5881 5878 5875 5872 5871 5866 5862 5858 5854 5850 5846 5840 5833 5826 5818 5810 5801 5791 5780 5769 5757 5743 5729 5714 5698 5682 5665 5649 5633 5619 5606 5595 5584 5574 5566 5559 5553 5549 5546 5544 5543 5543 5545 5548 5553 5560 5569
5883 5880 5877 5875 5872 5869 5867 5862 5858 5853 5849 5844 5839 5833 5825 5818 5810 5800 5790 5779 5767 5755 5741 5726 5711 5696 5680 5662 5645 5628 5612 5598 5585 5574 5564 5554 5546 5538 5532 5527 5524 5522 5520 5520 5522 5525 5529 5535 5542
5882 5879 5876 5872 5869 5866 5862 5858 5853 5848 5843 5838 5832 5825 5818 5810 5801 5790 5778 5766 5753 5739 5725 5710 5695 5679 5663 5646 5629 5612 5596 5582 5568 5556 5545 5535 5526 5518 5512 5507 5503 5500 5499 5499 5500 5504 5508 5513 5520
5878 5875 5871 5868 5864 5861 5858 5854 5849 5843 5838 5833 5826 5818 5810 5800 5790 5778 5766 5753 5739 5724 5709 5694 5679 5663 5646 5630 5615 5600 5585 5570 5556 5541 5528 5517 5508 5500 5493 5488 5484 5481 5479 5479 5480 5482 5487 5493 5498
5873 5870 5867 5864 5861 5857 5854 5851 5845 5839 5833 5827 5820 5811 5801 5790 5779 5768 5755 5740 5726 5711 5696 5680 5663 5646 5629 5613 5597 5582 5568 5553 5539 5525 5512 5500 5491 5483 5477 5471 5467 5464 5462 5460 5460 5462 5467 5473 5478
5870 5868 5865 5862 5859 5854 5851 5848 5841 5835 5828 5821 5812 5802 5791 5781 5770 5757 5743 5729 5714 5699 5682 5665 5647 5630 5613 5597 5583 5569 5555 5539 5525 5513 5500 5488 5479 5471 5464 5458 5453 5449 5446 5444 5443 5444 5447 5453 5459
5868 5865 5862 5859 5855 5850 5846 5843 5836 5829 5821 5813 5804 5794 5784 5773 5760 5747 5733 5718 5703 5686 5668 5650 5632 5615 5599 5583 5568 5554 5539 5526 5512 5500 5489 5478 5468 5460 5453 5446 5441 5436 5432 5430 5428 5428 5429 5434 5440
5865 5862 5859 5855 5851 5848 5842 5837 5832 5823 5814 5806 5797 5787 5776 5764 5751 5737 5723 5708 5691 5673 5655 5637 5619 5602 5586 5570 5554 5540 5525 5511 5499 5488 5478 5468 5458 5449 5441 5435 5429 5424 5419 5416 5414 5413 5413 5416 5421
5862 5859 5856 5852 5849 5844 5837 5831 5825 5817 5809 5800 5790 5779 5768 5756 5743 5729 5713 5697 5680 5662 5644 5625 5608 5591 5575 5559 5543 5527 5514 5501 5489 5479 5469 5459 5449 5439 5430 5423 5416 5410 5406 5402 5399 5398 5397 5399 5403
5860 5856 5852 5847 5843 5839 5832 5826 5820 5811 5803 5793 5783 5772 5761 5749 5735 5720 5704 5687 5670 5652 5634 5616 5598 5582 5565 5549 5532 5517 5503 5490 5479 5469 5459 5449 5439 5428 5418 5409 5401 5395 5390 5387 5384 5383 5382 5383 5386
5857 5852 5848 5842 5837 5834 5828 5821 5815 5806 5796 5786 5776 5766 5754 5741 5726 5711 5695 5678 5660 5642 5624 5606 5590 5573 5556 5539 5523 5508 5494 5481 5469 5457 5446 5434 5423 5412 5401 5392 5384 5377 5373 5370 5368 5367 5367 5368 5370
5853 5849 5844 5839 5832 5828 5822 5816 5807 5798 5790 5781 5771 5760 5747 5732 5717 5702 5685 5668 5650 5632 5615 5598 5581 5564 5548 5531 5515 5500 5486 5473 5460 5447 5433 5419 5405 5392 5381 5370 5362 5356 5352 5350 5350 5350 5351 5353 5356
5850 5845 5840 5834 5827 5820 5816 5810 5802 5793 5784 5775 5765 5752 5738 5724 5709 5693 5676 5659 5641 5623 5606 5589 5572 5556 5539 5523 5507 5492 5478 5464 5450 5435 5420 5404 5387 5371 5357 5346 5338 5333 5331 5330 5331 5333 5336 5339 5342
5848 5843 5837 5831 5825 5817 5810 5808 5798 5789 5779 5769 5758 5744 5731 5716 5701 5685 5668 5651 5633 5615 5598 5583 5567 5550 5534 5517 5501 5486 5471 5456 5440 5423 5406 5388 5369 5350 5333 5321 5312 5308 5308 5310 5313 5316 5321 5325 5329
5845 5840 5834 5828 5822 5813 5806 5803 5792 5784 5774 5763 5750 5737 5724 5709 5693 5677 5661 5644 5626 5609 5593 5577 5561 5545 5529 5512 5496 5480 5464 5449 5432 5414 5394 5373 5351 5330 5312 5299 5290 5286 5286 5290 5296 5302 5308 5314 5318